Weather History for Hill City, KS

Change the Weather History Date:

Sunday, October 13, 2013

  Actual Average Record
Temperature  
Mean Temperature 53 °F 55 °F  
Max Temperature 70 °F 69 °F 92 °F (1950)
Min Temperature 35 °F 41 °F 27 °F (1969)
Degree Days  
Heating Degree Days 12    
Growing Degree Days 2 (Base 50)    
Moisture  
Dew Point 39 °F    
Average Humidity 63    
Maximum Humidity 93    
Minimum Humidity 30    
Precipitation  
Precipitation T in 0.05 in 0.37 in (2012)
Month to date precipitation 0.35 0.69  
Year to date precipitation 16.16 20.45  
Sea Level Pressure  
Sea Level Pressure 30.25 in    
Wind  
Wind Speed 6 mph (SE)    
Max Wind Speed 17 mph    
Max Gust Speed 29 mph    
Visibility 10 miles    
Events      
T = Trace of Precipitation, MM = Missing Value Source: NWS Daily Summary

Daily Weather History Graph

Daily Weather History Graph

Search for Another Location

Airport:

Trip Planner

Search our weather history database for the weather conditions in past years. The results will help you decide how hot, cold, wet, or windy it might be!

Date:

Astronomy

Oct. 13, 2013 Rise Set
Actual Time 7:47 AM CDT 7:02 PM CDT
Civil Twilight 7:20 AM CDT 7:29 PM CDT
Nautical Twilight 6:49 AM CDT 8:00 PM CDT
Astronomical Twilight 6:18 AM CDT 8:31 PM CDT
Moon 3:53 PM CDT (10/13) 2:00 AM CDT (10/13)
Length of Visible Light 12h 09m
Length of Day
11h 15m
Waxing Gibbous, 69% of the Moon is Illuminated
Oct 13
Waxing Gibbous
Oct 18
Full
Oct 26
Last Quarter
Nov 3
New
Nov 9
First Quarter

Hourly Weather History & Observations

Time (CDT) Temp. Windchill Dew Point Humidity Pressure Visibility Wind Dir Wind Speed Gust Speed Precip Events Conditions
12:53 AM 39.9 °F - 37.0 °F 89% 30.29 in 10.0 mi Calm Calm - N/A   Clear
1:53 AM 37.9 °F - 35.1 °F 89% 30.30 in 10.0 mi Calm Calm - N/A   Clear
2:53 AM 37.0 °F - 35.1 °F 93% 30.30 in 10.0 mi Calm Calm - N/A   Clear
3:53 AM 36.0 °F - 34.0 °F 93% 30.30 in 10.0 mi Calm Calm - N/A   Clear
4:53 AM 36.0 °F - 34.0 °F 93% 30.29 in 10.0 mi Calm Calm - N/A   Clear
5:53 AM 35.1 °F - 33.1 °F 92% 30.30 in 10.0 mi Calm Calm - N/A   Clear
6:53 AM 39.0 °F 35.7 °F 34.0 °F 82% 30.31 in 10.0 mi East 4.6 mph - N/A   Clear
7:53 AM 37.0 °F 34.5 °F 33.1 °F 86% 30.35 in 10.0 mi East 3.5 mph - N/A   Clear
8:53 AM 45.0 °F 43.5 °F 37.0 °F 74% 30.35 in 10.0 mi East 3.5 mph - N/A   Clear
9:53 AM 51.1 °F - 37.9 °F 61% 30.37 in 10.0 mi SE 3.5 mph - N/A   Clear
10:53 AM 60.1 °F - 36.0 °F 41% 30.35 in 10.0 mi SE 15.0 mph 20.7 mph N/A   Clear
11:53 AM 64.0 °F - 33.1 °F 31% 30.34 in 10.0 mi SE 13.8 mph 24.2 mph N/A   Clear
12:53 PM 66.0 °F - 34.0 °F 30% 30.31 in 10.0 mi SE 17.3 mph 25.3 mph N/A   Clear
1:53 PM 66.0 °F - 34.0 °F 30% 30.27 in 10.0 mi SSE 15.0 mph 24.2 mph N/A   Scattered Clouds
2:53 PM 68.0 °F - 35.1 °F 30% 30.22 in 10.0 mi SE 12.7 mph 24.2 mph N/A   Overcast
3:53 PM 68.0 °F - 39.0 °F 35% 30.19 in 10.0 mi SE 16.1 mph 25.3 mph N/A   Partly Cloudy
4:53 PM 70.0 °F - 41.0 °F 35% 30.16 in 10.0 mi SE 17.3 mph 28.8 mph N/A   Overcast
5:53 PM 66.9 °F - 43.0 °F 42% 30.16 in 10.0 mi SSE 17.3 mph 27.6 mph N/A   Clear
6:53 PM 64.9 °F - 45.0 °F 48% 30.16 in 10.0 mi SE 11.5 mph 17.3 mph N/A   Overcast
7:53 PM 62.1 °F - 46.0 °F 56% 30.18 in 10.0 mi SE 10.4 mph 16.1 mph N/A   Mostly Cloudy
8:53 PM 60.1 °F - 46.9 °F 62% 30.17 in 10.0 mi ESE 6.9 mph - N/A   Overcast
9:53 PM 60.1 °F - 48.9 °F 67% 30.15 in 10.0 mi ESE 9.2 mph - N/A   Overcast
10:17 PM 60.8 °F - 50.0 °F 68% 30.17 in 10.0 mi SE 11.5 mph 17.3 mph N/A   Mostly Cloudy
10:53 PM 61.0 °F - 50.0 °F 67% 30.13 in 10.0 mi SE 11.5 mph 17.3 mph N/A   Overcast
11:53 PM 61.0 °F - 51.1 °F 70% 30.13 in 10.0 mi SSE 13.8 mph 20.7 mph N/A   Overcast